Weather History for Medford, OR

Change the Weather History Date:

Saturday, November 30, 2013

  Actual Average Record
Temperature  
Mean Temperature 44 °F 41 °F  
Max Temperature 57 °F 48 °F 63 °F (1960)
Min Temperature 31 °F 34 °F 15 °F (1936)
Degree Days  
Heating Degree Days 21 24  
Month to date heating degree days 609 609  
Since 1 July heating degree days 1051 969  
Cooling Degree Days 0 0  
Month to date cooling degree days 0 0  
Year to date cooling degree days 1057 829  
Moisture  
Dew Point 35 °F    
Average Humidity 74    
Maximum Humidity 96    
Minimum Humidity 51    
Precipitation  
Precipitation 0.00 in 0.12 in 1.77 in (1917)
Month to date precipitation 1.12 3.02  
Year to date precipitation 8.63 14.86  
Snow  
Snow 0.00 in 0.00 in - ()
Month to date snowfall 0.0 0.2  
Since 1 July snowfall 0.0 0.2  
Snow Depth 0.00 in    
Sea Level Pressure  
Sea Level Pressure 30.38 in    
Wind  
Wind Speed 1 mph (North)    
Max Wind Speed 7 mph    
Max Gust Speed 8 mph    
Visibility 6 miles    
Events Fog    
T = Trace of Precipitation, MM = Missing Value Source: NWS Daily Summary

Daily Weather History Graph

Daily Weather History Graph

Search for Another Location

Airport:

Trip Planner

Search our weather history database for the weather conditions in past years. The results will help you decide how hot, cold, wet, or windy it might be!

Date:

Astronomy

Nov. 30, 2013 Rise Set
Actual Time 7:20 AM PST 4:40 PM PST
Civil Twilight 6:49 AM PST 5:11 PM PST
Nautical Twilight 6:14 AM PST 5:46 PM PST
Astronomical Twilight 5:40 AM PST 6:20 PM PST
Moon 4:35 AM PST (11/30) 3:10 PM PST (11/30)
Length of Visible Light 10h 22m
Length of Day
9h 19m
Waning Crescent, 6% of the Moon is Illuminated
Nov 30
Waning Crescent
Dec 2
New
Dec 9
First Quarter
Dec 17
Full
Dec 25
Last Quarter

Hourly Weather History & Observations

Time (PST) Temp. Windchill Dew Point Humidity Pressure Visibility Wind Dir Wind Speed Gust Speed Precip Events Conditions
12:53 AM 41.0 °F 39.0 °F 37.0 °F 86% 30.34 in 6.0 mi North 3.5 mph - N/A   Partly Cloudy
1:53 AM 39.9 °F - 37.0 °F 89% 30.36 in 7.0 mi Calm Calm - N/A   Overcast
2:53 AM 41.0 °F - 37.0 °F 86% 30.36 in 8.0 mi Calm Calm - N/A   Overcast
3:53 AM 37.0 °F - 35.1 °F 93% 30.36 in 6.0 mi Calm Calm - N/A   Clear
4:53 AM 36.0 °F - 34.0 °F 93% 30.37 in 6.0 mi Calm Calm - N/A   Clear
5:53 AM 35.1 °F - 33.1 °F 92% 30.38 in 5.0 mi Calm Calm - N/A   Clear
6:53 AM 30.9 °F 27.5 °F 28.9 °F 92% 30.40 in 5.0 mi East 3.5 mph - N/A   Clear
7:53 AM 33.1 °F - 30.0 °F 89% 30.41 in 6.0 mi Calm Calm - N/A   Clear
8:15 AM 33.1 °F 30.0 °F 30.0 °F 89% 30.39 in 2.5 mi NNW 3.5 mph - N/A Fog Patches of Fog
8:18 AM 33.1 °F - 30.0 °F 89% 30.39 in 1.8 mi Calm Calm - N/A Fog Patches of Fog
8:26 AM 33.1 °F - 30.9 °F 92% 30.40 in 1.5 mi Calm Calm - N/A Fog Patches of Fog
8:42 AM 35.1 °F 32.2 °F 32.0 °F 89% 30.40 in 1.5 mi North 3.5 mph - N/A Fog Patches of Fog
8:51 AM 33.8 °F 30.8 °F 32.0 °F 93% 30.40 in 0.2 mi NNE 3.5 mph - N/A Fog Fog
8:53 AM 33.1 °F 30.0 °F 32.0 °F 96% 30.43 in 0.2 mi NNE 3.5 mph - N/A Fog Fog
9:16 AM 35.1 °F - 34.0 °F 96% 30.41 in 0.2 mi Calm Calm - N/A Fog Fog
9:18 AM 36.0 °F - 34.0 °F 93% 30.41 in 0.2 mi Calm Calm - N/A Fog Fog
9:34 AM 37.0 °F - 35.1 °F 93% 30.41 in 4.0 mi Calm Calm - N/A   Partly Cloudy
9:53 AM 39.0 °F - 36.0 °F 89% 30.44 in 6.0 mi Calm Calm - N/A   Partly Cloudy
10:53 AM 46.9 °F - 37.9 °F 71% 30.42 in 10.0 mi Calm Calm - N/A   Clear
11:53 AM 50.0 °F - 39.0 °F 66% 30.39 in 10.0 mi NNW 3.5 mph - N/A   Clear
12:53 PM 53.1 °F - 39.0 °F 59% 30.35 in 10.0 mi Calm Calm - N/A   Clear
1:53 PM 55.9 °F - 39.0 °F 53% 30.34 in 10.0 mi Calm Calm - N/A   Clear
2:53 PM 55.9 °F - 37.9 °F 51% 30.33 in 10.0 mi Calm Calm - N/A   Clear
3:53 PM 55.9 °F - 37.9 °F 51% 30.34 in 10.0 mi West 3.5 mph - N/A   Clear
4:53 PM 54.0 °F - 39.0 °F 57% 30.35 in 10.0 mi West 3.5 mph - N/A   Clear
5:53 PM 48.9 °F - 37.9 °F 66% 30.36 in 10.0 mi Calm Calm - N/A   Clear
6:53 PM 45.0 °F - 37.0 °F 74% 30.37 in 8.0 mi Calm Calm - N/A   Clear
7:53 PM 39.9 °F 37.8 °F 35.1 °F 83% 30.37 in 10.0 mi NNE 3.5 mph - N/A   Clear
8:53 PM 39.9 °F - 35.1 °F 83% 30.40 in 7.0 mi Calm Calm - N/A   Clear
9:48 PM 39.2 °F - 35.6 °F 87% 30.39 in 2.5 mi Calm Calm - N/A   Clear
9:53 PM 39.9 °F - 36.0 °F 86% 30.41 in 3.0 mi Calm Calm - N/A   Clear
10:53 PM 39.9 °F 35.8 °F 35.1 °F 83% 30.40 in 4.0 mi SSW 5.8 mph - N/A   Haze
11:53 PM 37.0 °F 33.3 °F 34.0 °F 89% 30.40 in 6.0 mi North 4.6 mph - N/A   Clear